Saint Cloud, MN

5:05 AM CST on January 19, 2017 (GMT -0600)
Saint Cloud Regional

Weather History for KSTC - July, 2013

Change the Weather History Date:

Saturday, July 13, 2013

  Actual Average Record
Temperature  
Mean Temperature 73 °F 71 °F  
Max Temperature 77 °F 83 °F 107 °F (1936)
Min Temperature 68 °F 59 °F 44 °F (1990)
Degree Days  
Heating Degree Days 0 1  
Month to date heating degree days 0 13  
Since 1 June heating degree days 87 91  
Since 1 July heating degree days 0 13  
Cooling Degree Days 8 6  
Month to date cooling degree days 109 77  
Year to date cooling degree days 219 197  
Since 1 June cooling degree days 208 172  
Growing Degree Days 23 (Base 50)    
Moisture  
Dew Point 65 °F    
Average Humidity 79    
Maximum Humidity 90    
Minimum Humidity 68    
Precipitation  
Precipitation 0.16 in 0.11 in 1.69 in (1933)
Month to date precipitation 1.00 1.45  
Year to date precipitation 19.05 13.93  
Snow  
Snow 0.00 in 0.00 in 0.00 in ()
Month to date snowfall 0.0 0.0  
Since 1 June snowfall 0.0 0.0  
Since 1 July snowfall 0.0 0.0  
Snow Depth 0.00 in    
Sea Level Pressure  
Sea Level Pressure 29.98 in    
Wind  
Wind Speed 10 mph (SSE)    
Max Wind Speed 21 mph    
Max Gust Speed 28 mph    
Visibility 9 miles    
Events Rain , Thunderstorm    
T = Trace of Precipitation, MM = Missing Value Source: NWS Daily Summary

Daily Weather History Graph

Daily Weather History Graph

Search for Another Location

Airport or City:

Trip Planner

Search our weather history database for the weather conditions in past years. The results will help you decide how hot, cold, wet, or windy it might be!

Date:

Astronomy

Jul. 13, 2013 Rise Set
Actual Time 5:40 AM CDT 9:03 PM CDT
Civil Twilight 5:03 AM CDT 9:39 PM CDT
Nautical Twilight 4:15 AM CDT 10:27 PM CDT
Astronomical Twilight 3:14 AM CDT 11:28 PM CDT
Moon 11:15 AM CDT (7/13) 11:24 PM CDT (7/13)
Length of Visible Light 16h 36m
Length of Day
15h 22m
Waxing Crescent, 26% of the Moon is Illuminated
Jul 13
Waxing Crescent
Jul 15
First Quarter
Jul 22
Full
Jul 29
Last Quarter
Aug 6
New

Hourly Weather History & Observations

Time (CDT) Temp. Dew Point Humidity Pressure Visibility Wind Dir Wind Speed Gust Speed Precip Events Conditions
12:28 AM 78.8 °F 60.8 °F 54% 29.91 in 10.0 mi South 13.8 mph - N/A Thunderstorm Scattered Clouds
12:49 AM 71.6 °F 64.4 °F 78% 29.95 in 1.8 mi WNW 6.9 mph - 0.05 in Rain , Thunderstorm Thunderstorms and Rain
12:53 AM 71.1 °F 64.9 °F 81% 29.95 in 1.8 mi WNW 3.5 mph - 0.09 in Rain , Thunderstorm Heavy Thunderstorms and Rain
1:03 AM 71.6 °F 66.2 °F 83% 29.94 in 3.0 mi SSE 8.1 mph - 0.07 in Rain , Thunderstorm Light Thunderstorms and Rain
1:19 AM 69.8 °F 66.2 °F 88% 29.93 in 2.5 mi SSE 10.4 mph - 0.19 in Rain , Thunderstorm Heavy Thunderstorms and Rain
1:27 AM 69.8 °F 66.2 °F 88% 29.92 in 5.0 mi South 12.7 mph - 0.20 in Rain , Thunderstorm Light Rain
1:51 AM 68.0 °F 66.2 °F 94% 29.92 in 7.0 mi SE 13.8 mph - 0.21 in Rain Light Rain
1:53 AM 68.0 °F 66.0 °F 93% 29.92 in 7.0 mi SE 15.0 mph - 0.21 in Rain Light Rain
2:04 AM 68.0 °F 66.2 °F 94% 29.92 in 7.0 mi SSE 10.4 mph - 0.00 in Rain , Thunderstorm Light Thunderstorms and Rain
2:46 AM 69.8 °F 66.2 °F 88% 29.93 in 9.0 mi SSE 13.8 mph - 0.00 in   Overcast
2:53 AM 69.1 °F 66.0 °F 90% 29.94 in 9.0 mi South 10.4 mph 20.7 mph 0.00 in   Overcast
3:53 AM 69.1 °F 66.0 °F 90% 29.95 in 8.0 mi SSE 13.8 mph - N/A   Overcast
4:53 AM 69.1 °F 66.9 °F 93% 29.95 in 10.0 mi SSE 12.7 mph - N/A   Overcast
5:53 AM 69.1 °F 66.9 °F 93% 29.96 in 10.0 mi SE 11.5 mph - 0.00 in   Overcast
6:34 AM 69.8 °F 66.2 °F 88% 29.96 in 10.0 mi SSE 15.0 mph - N/A   Overcast
6:53 AM 70.0 °F 66.0 °F 87% 29.97 in 10.0 mi SSE 13.8 mph 23.0 mph N/A   Overcast
7:53 AM 71.1 °F 66.0 °F 84% 29.98 in 10.0 mi South 16.1 mph 21.9 mph N/A   Overcast
8:53 AM 72.0 °F 66.0 °F 81% 29.96 in 10.0 mi South 13.8 mph 21.9 mph N/A   Overcast
9:53 AM 73.9 °F 66.0 °F 76% 29.96 in 10.0 mi South 12.7 mph - N/A   Overcast
10:53 AM 73.0 °F 64.0 °F 73% 29.99 in 10.0 mi SSW 18.4 mph 25.3 mph N/A   Mostly Cloudy
11:53 AM 73.0 °F 64.0 °F 73% 30.00 in 10.0 mi SSW 9.2 mph - N/A   Overcast
12:53 PM 72.0 °F 64.9 °F 78% 30.02 in 10.0 mi SSW 4.6 mph - N/A   Overcast
1:53 PM 73.0 °F 66.0 °F 79% 29.99 in 10.0 mi ESE 6.9 mph - N/A   Mostly Cloudy
2:53 PM 73.0 °F 64.9 °F 76% 30.03 in 10.0 mi South 8.1 mph - 0.00 in   Scattered Clouds
3:07 PM 73.4 °F 66.2 °F 78% 30.02 in 10.0 mi South 5.8 mph - N/A   Mostly Cloudy
3:42 PM 73.4 °F 66.2 °F 78% 30.02 in 10.0 mi SSW 3.5 mph - N/A   Overcast
3:53 PM 73.0 °F 66.0 °F 79% 30.03 in 10.0 mi Calm Calm - 0.00 in Rain Light Rain
4:53 PM 75.9 °F 66.9 °F 74% 30.02 in 10.0 mi SSE 5.8 mph - 0.00 in   Overcast
5:53 PM 75.0 °F 66.0 °F 73% 30.03 in 10.0 mi SSE 5.8 mph - N/A   Mostly Cloudy
6:53 PM 73.0 °F 66.9 °F 81% 30.03 in 10.0 mi ESE 6.9 mph - N/A   Overcast
7:53 PM 73.0 °F 64.9 °F 76% 30.01 in 10.0 mi ESE 9.2 mph - N/A   Mostly Cloudy
8:06 PM 73.4 °F 64.4 °F 73% 30.00 in 10.0 mi SE 6.9 mph - N/A   Scattered Clouds
8:53 PM 73.0 °F 62.1 °F 68% 30.01 in 10.0 mi SE 12.7 mph - N/A   Mostly Cloudy
9:53 PM 71.1 °F 62.1 °F 73% 30.03 in 10.0 mi SE 9.2 mph - N/A   Clear
10:53 PM 70.0 °F 62.1 °F 76% 30.06 in 10.0 mi East 4.6 mph - N/A   Scattered Clouds
11:53 PM 69.1 °F 59.0 °F 70% 30.07 in 10.0 mi SSE 8.1 mph - N/A   Mostly Cloudy